Time,TemperatureF,DewpointF,PressureIn,WindDirection,WindDirectionDegrees,WindSpeedMPH,WindSpeedGustMPH,Humidity,HourlyPrecipIn,Conditions,Clouds,dailyrainin,SoftwareType,DateUTC
2013-01-09 00:00:00,51.4,46.4,30.31,SSW,198,0.0,5.0,83,0.00,,---,0.01,VWS V14.00,2013-01-09 05:00:00,
2013-01-09 00:03:00,51.4,46.4,30.31,SSW,198,0.0,1.0,83,0.00,,---,0.00,VWS V14.00,2013-01-09 05:03:00,
2013-01-09 00:08:00,51.3,46.3,30.32,South,190,1.0,4.0,83,0.00,,---,0.00,VWS V14.00,2013-01-09 05:08:00,
2013-01-09 00:10:00,51.2,46.5,30.33,South,190,0.0,2.0,84,0.00,,---,0.00,VWS V14.00,2013-01-09 05:10:00,
2013-01-09 00:13:00,51.4,46.4,30.32,South,190,0.0,2.0,83,0.00,,---,0.00,VWS V14.00,2013-01-09 05:13:00,
2013-01-09 00:18:00,51.4,46.4,30.32,South,190,0.0,2.0,83,0.00,,---,0.00,VWS V14.00,2013-01-09 05:18:00,
2013-01-09 00:20:00,51.2,46.8,30.34,South,190,0.0,1.0,85,0.00,,---,0.00,VWS V14.00,2013-01-09 05:20:00,
2013-01-09 00:23:00,51.3,46.3,30.32,South,190,0.0,2.0,83,0.00,,---,0.00,VWS V14.00,2013-01-09 05:23:00,
2013-01-09 00:28:00,51.3,46.3,30.32,South,190,0.0,2.0,83,0.00,,---,0.00,VWS V14.00,2013-01-09 05:28:00,
2013-01-09 00:30:00,51.2,46.8,30.34,South,190,0.0,1.0,85,0.00,,---,0.00,VWS V14.00,2013-01-09 05:30:00,
2013-01-09 00:33:00,51.2,46.2,30.33,South,190,0.0,1.0,83,0.00,,---,0.00,VWS V14.00,2013-01-09 05:33:00,
2013-01-09 00:38:00,51.2,46.2,30.33,South,190,0.0,1.0,83,0.00,,---,0.00,VWS V14.00,2013-01-09 05:38:00,
2013-01-09 00:40:00,51.3,47.0,30.34,SSE,153,0.0,4.0,85,0.00,,---,0.00,VWS V14.00,2013-01-09 05:40:00,
2013-01-09 00:43:00,51.2,46.2,30.33,South,190,0.0,0.0,83,0.00,,---,0.00,VWS V14.00,2013-01-09 05:43:00,
2013-01-09 00:48:00,51.1,46.1,30.33,South,190,2.0,2.0,83,0.00,,---,0.00,VWS V14.00,2013-01-09 05:48:00,
2013-01-09 00:50:00,51.4,46.7,30.33,South,178,0.0,2.0,84,0.00,,---,0.00,VWS V14.00,2013-01-09 05:50:00,
2013-01-09 00:53:00,51.2,46.2,30.33,South,190,0.0,1.0,83,0.00,,---,0.00,VWS V14.00,2013-01-09 05:53:00,
2013-01-09 00:58:00,51.2,46.5,30.33,South,190,2.0,2.0,84,0.00,,---,0.00,VWS V14.00,2013-01-09 05:58:00,
2013-01-09 01:00:00,51.3,46.6,30.33,South,178,0.0,2.0,84,0.00,,---,0.00,VWS V14.00,2013-01-09 06:00:00,
2013-01-09 01:03:00,51.2,46.5,30.33,South,190,1.0,1.0,84,0.00,,---,0.00,VWS V14.00,2013-01-09 06:03:00,
2013-01-09 01:08:00,51.2,46.5,30.33,South,190,0.0,2.0,84,0.00,,---,0.00,VWS V14.00,2013-01-09 06:08:00,
2013-01-09 01:10:00,51.3,46.6,30.33,South,178,0.0,1.0,84,0.00,,---,0.00,VWS V14.00,2013-01-09 06:10:00,
2013-01-09 01:13:00,51.2,46.5,30.33,South,190,0.0,0.0,84,0.00,,---,0.00,VWS V14.00,2013-01-09 06:13:00,
2013-01-09 01:18:00,51.2,46.5,30.33,South,190,0.0,1.0,84,0.00,,---,0.00,VWS V14.00,2013-01-09 06:18:00,
2013-01-09 01:20:00,51.1,46.4,30.33,South,178,0.0,0.0,84,0.00,,---,0.00,VWS V14.00,2013-01-09 06:20:00,
2013-01-09 01:23:00,51.2,46.8,30.34,South,190,0.0,0.0,85,0.00,,---,0.00,VWS V14.00,2013-01-09 06:23:00,
2013-01-09 01:28:00,51.2,46.8,30.34,South,190,0.0,1.0,85,0.00,,---,0.00,VWS V14.00,2013-01-09 06:28:00,
2013-01-09 01:30:00,50.9,46.2,30.33,South,178,0.0,0.0,84,0.00,,---,0.00,VWS V14.00,2013-01-09 06:30:00,
2013-01-09 01:33:00,51.3,47.0,30.34,SSE,153,0.0,4.0,85,0.00,,---,0.00,VWS V14.00,2013-01-09 06:33:00,
2013-01-09 01:38:00,51.3,47.0,30.34,SSE,153,0.0,4.0,85,0.00,,---,0.00,VWS V14.00,2013-01-09 06:38:00,
2013-01-09 01:40:00,50.8,46.5,30.34,South,178,0.0,1.0,85,0.00,,---,0.00,VWS V14.00,2013-01-09 06:40:00,
2013-01-09 01:43:00,51.3,47.0,30.34,SSE,153,0.0,1.0,85,0.00,,---,0.00,VWS V14.00,2013-01-09 06:43:00,
2013-01-09 01:48:00,51.3,46.6,30.33,South,176,0.0,2.0,84,0.00,,---,0.00,VWS V14.00,2013-01-09 06:48:00,
2013-01-09 01:50:00,50.8,46.5,30.34,South,178,0.0,1.0,85,0.00,,---,0.00,VWS V14.00,2013-01-09 06:50:00,
2013-01-09 01:53:00,51.4,46.7,30.33,South,178,0.0,1.0,84,0.00,,---,0.00,VWS V14.00,2013-01-09 06:53:00,
2013-01-09 01:58:00,51.3,46.6,30.33,South,178,0.0,2.0,84,0.00,,---,0.00,VWS V14.00,2013-01-09 06:58:00,
2013-01-09 02:00:00,50.8,46.5,30.33,South,178,0.0,0.0,85,0.00,,---,0.00,VWS V14.00,2013-01-09 07:00:00,
2013-01-09 02:03:00,51.3,46.6,30.33,South,178,0.0,0.0,84,0.00,,---,0.00,VWS V14.00,2013-01-09 07:03:00,
2013-01-09 02:08:00,51.3,46.6,30.33,South,178,0.0,1.0,84,0.00,,---,0.00,VWS V14.00,2013-01-09 07:08:00,
2013-01-09 02:10:00,50.8,46.8,30.34,South,178,0.0,0.0,86,0.00,,---,0.00,VWS V14.00,2013-01-09 07:10:00,
2013-01-09 02:13:00,51.2,46.5,30.33,South,178,0.0,0.0,84,0.00,,---,0.00,VWS V14.00,2013-01-09 07:13:00,
2013-01-09 02:18:00,51.1,46.4,30.33,South,178,0.0,0.0,84,0.00,,---,0.00,VWS V14.00,2013-01-09 07:18:00,
2013-01-09 02:20:00,50.9,46.9,30.34,South,178,0.0,0.0,86,0.00,,---,0.00,VWS V14.00,2013-01-09 07:20:00,
2013-01-09 02:23:00,51.1,46.4,30.33,South,178,0.0,0.0,84,0.00,,---,0.00,VWS V14.00,2013-01-09 07:23:00,
2013-01-09 02:28:00,51.0,46.3,30.33,South,178,0.0,0.0,84,0.00,,---,0.00,VWS V14.00,2013-01-09 07:28:00,
2013-01-09 02:30:00,51.1,47.1,30.34,South,178,0.0,1.0,86,0.00,,---,0.00,VWS V14.00,2013-01-09 07:30:00,
2013-01-09 02:33:00,50.9,46.2,30.33,South,178,0.0,0.0,84,0.00,,---,0.00,VWS V14.00,2013-01-09 07:33:00,
2013-01-09 02:38:00,50.8,46.5,30.34,South,178,0.0,1.0,85,0.00,,---,0.00,VWS V14.00,2013-01-09 07:38:00,
2013-01-09 02:40:00,51.2,47.2,30.34,South,178,0.0,1.0,86,0.00,,---,0.00,VWS V14.00,2013-01-09 07:40:00,
2013-01-09 02:43:00,50.8,46.5,30.34,South,178,0.0,0.0,85,0.00,,---,0.00,VWS V14.00,2013-01-09 07:43:00,
2013-01-09 02:48:00,50.8,46.5,30.33,South,178,0.0,0.0,85,0.00,,---,0.00,VWS V14.00,2013-01-09 07:48:00,
2013-01-09 02:50:00,51.2,47.2,30.34,South,178,0.0,0.0,86,0.00,,---,0.00,VWS V14.00,2013-01-09 07:50:00,
2013-01-09 02:53:00,50.8,46.5,30.34,South,178,0.0,0.0,85,0.00,,---,0.00,VWS V14.00,2013-01-09 07:53:00,
2013-01-09 02:58:00,50.8,46.5,30.33,South,178,0.0,0.0,85,0.00,,---,0.00,VWS V14.00,2013-01-09 07:58:00,
2013-01-09 03:00:00,51.3,47.3,30.34,South,178,0.0,0.0,86,0.00,,---,0.00,VWS V14.00,2013-01-09 08:00:00,
2013-01-09 03:03:00,50.8,46.8,30.33,South,178,0.0,0.0,86,0.00,,---,0.00,VWS V14.00,2013-01-09 08:03:00,
2013-01-09 03:08:00,50.8,46.8,30.34,South,178,0.0,0.0,86,0.00,,---,0.00,VWS V14.00,2013-01-09 08:08:00,
2013-01-09 03:10:00,51.3,47.3,30.34,South,178,0.0,0.0,86,0.00,,---,0.00,VWS V14.00,2013-01-09 08:10:00,
2013-01-09 03:13:00,50.9,46.9,30.34,South,178,0.0,0.0,86,0.00,,---,0.00,VWS V14.00,2013-01-09 08:13:00,
2013-01-09 03:18:00,50.9,46.9,30.34,South,178,0.0,0.0,86,0.00,,---,0.00,VWS V14.00,2013-01-09 08:18:00,
2013-01-09 03:20:00,51.3,47.6,30.34,South,178,0.0,0.0,87,0.00,,---,0.00,VWS V14.00,2013-01-09 08:20:00,
2013-01-09 03:22:00,51.0,47.0,30.34,South,178,0.0,1.0,86,0.00,,---,0.00,VWS V14.00,2013-01-09 08:22:00,
2013-01-09 03:27:00,51.1,47.1,30.34,South,178,0.0,1.0,86,0.00,,---,0.00,VWS V14.00,2013-01-09 08:27:00,
2013-01-09 03:30:00,51.3,47.6,30.34,South,178,0.0,0.0,87,0.00,,---,0.00,VWS V14.00,2013-01-09 08:30:00,
2013-01-09 03:32:00,51.1,47.1,30.34,South,178,0.0,0.0,86,0.00,,---,0.00,VWS V14.00,2013-01-09 08:32:00,
2013-01-09 03:37:00,51.2,47.2,30.34,South,178,0.0,1.0,86,0.00,,---,0.00,VWS V14.00,2013-01-09 08:37:00,
2013-01-09 03:40:00,51.5,47.8,30.34,South,178,0.0,0.0,87,0.00,,---,0.00,VWS V14.00,2013-01-09 08:40:00,
2013-01-09 03:42:00,51.2,47.2,30.34,South,178,0.0,0.0,86,0.00,,---,0.00,VWS V14.00,2013-01-09 08:42:00,
2013-01-09 03:47:00,51.2,47.2,30.34,South,178,0.0,0.0,86,0.00,,---,0.00,VWS V14.00,2013-01-09 08:47:00,
2013-01-09 03:50:00,51.6,47.9,30.34,South,178,0.0,0.0,87,0.00,,---,0.00,VWS V14.00,2013-01-09 08:50:00,
2013-01-09 03:52:00,51.2,47.2,30.34,South,178,0.0,0.0,86,0.00,,---,0.00,VWS V14.00,2013-01-09 08:52:00,
2013-01-09 03:57:00,51.3,47.3,30.34,South,178,0.0,0.0,86,0.00,,---,0.00,VWS V14.00,2013-01-09 08:57:00,
2013-01-09 04:00:00,51.7,48.0,30.34,South,178,0.0,1.0,87,0.00,,---,0.00,VWS V14.00,2013-01-09 09:00:00,
2013-01-09 04:03:00,51.3,47.3,30.34,South,178,0.0,0.0,86,0.00,,---,0.00,VWS V14.00,2013-01-09 09:03:00,
2013-01-09 04:08:00,51.3,47.3,30.34,South,178,0.0,0.0,86,0.00,,---,0.00,VWS V14.00,2013-01-09 09:08:00,
2013-01-09 04:10:00,51.7,48.0,30.34,South,178,0.0,0.0,87,0.00,,---,0.00,VWS V14.00,2013-01-09 09:10:00,
2013-01-09 04:13:00,51.3,47.3,30.34,South,178,0.0,0.0,86,0.00,,---,0.00,VWS V14.00,2013-01-09 09:13:00,
2013-01-09 04:18:00,51.3,47.3,30.34,South,178,0.0,0.0,86,0.00,,---,0.00,VWS V14.00,2013-01-09 09:18:00,
2013-01-09 04:20:00,51.8,48.1,30.35,South,182,0.0,2.0,87,0.00,,---,0.00,VWS V14.00,2013-01-09 09:20:00,
2013-01-09 04:23:00,51.3,47.6,30.34,South,178,0.0,0.0,87,0.00,,---,0.00,VWS V14.00,2013-01-09 09:23:00,
2013-01-09 04:28:00,51.3,47.6,30.34,South,178,0.0,0.0,87,0.00,,---,0.00,VWS V14.00,2013-01-09 09:28:00,
2013-01-09 04:30:00,51.9,48.2,30.35,South,182,0.0,1.0,87,0.00,,---,0.00,VWS V14.00,2013-01-09 09:30:00,
2013-01-09 04:33:00,51.4,47.7,30.34,South,178,0.0,0.0,87,0.00,,---,0.00,VWS V14.00,2013-01-09 09:33:00,
2013-01-09 04:38:00,51.4,47.7,30.34,South,178,0.0,0.0,87,0.00,,---,0.00,VWS V14.00,2013-01-09 09:38:00,
2013-01-09 04:40:00,52.0,48.3,30.35,South,182,0.0,0.0,87,0.00,,---,0.00,VWS V14.00,2013-01-09 09:40:00,
2013-01-09 04:43:00,51.5,47.8,30.34,South,178,0.0,0.0,87,0.00,,---,0.00,VWS V14.00,2013-01-09 09:43:00,
2013-01-09 04:48:00,51.6,47.9,30.34,South,178,0.0,0.0,87,0.00,,---,0.00,VWS V14.00,2013-01-09 09:48:00,
2013-01-09 04:50:00,51.9,48.2,30.35,South,182,0.0,1.0,87,0.00,,---,0.00,VWS V14.00,2013-01-09 09:50:00,
2013-01-09 04:53:00,51.7,48.0,30.34,South,178,0.0,0.0,87,0.00,,---,0.00,VWS V14.00,2013-01-09 09:53:00,
2013-01-09 04:58:00,51.7,48.0,30.34,South,178,0.0,1.0,87,0.00,,---,0.00,VWS V14.00,2013-01-09 09:58:00,
2013-01-09 05:00:00,51.8,48.1,30.35,South,182,0.0,0.0,87,0.00,,---,0.00,VWS V14.00,2013-01-09 10:00:00,
2013-01-09 05:03:00,51.7,48.0,30.34,South,178,0.0,0.0,87,0.00,,---,0.00,VWS V14.00,2013-01-09 10:03:00,
2013-01-09 05:08:00,51.7,48.0,30.35,South,178,0.0,0.0,87,0.00,,---,0.00,VWS V14.00,2013-01-09 10:08:00,
2013-01-09 05:10:00,51.6,48.2,30.35,South,182,0.0,0.0,88,0.00,,---,0.00,VWS V14.00,2013-01-09 10:10:00,
2013-01-09 05:13:00,51.7,48.0,30.34,South,178,0.0,1.0,87,0.00,,---,0.00,VWS V14.00,2013-01-09 10:13:00,
2013-01-09 05:18:00,51.8,48.1,30.35,South,178,0.0,2.0,87,0.00,,---,0.00,VWS V14.00,2013-01-09 10:18:00,
2013-01-09 05:20:00,51.5,48.1,30.35,South,182,0.0,0.0,88,0.00,,---,0.00,VWS V14.00,2013-01-09 10:20:00,
2013-01-09 05:23:00,51.9,48.2,30.35,South,182,0.0,1.0,87,0.00,,---,0.00,VWS V14.00,2013-01-09 10:23:00,
2013-01-09 05:28:00,51.9,48.2,30.35,South,182,0.0,1.0,87,0.00,,---,0.00,VWS V14.00,2013-01-09 10:28:00,
2013-01-09 05:30:00,51.4,48.0,30.35,South,182,0.0,0.0,88,0.00,,---,0.00,VWS V14.00,2013-01-09 10:30:00,
2013-01-09 05:33:00,51.9,48.2,30.35,South,182,0.0,0.0,87,0.00,,---,0.00,VWS V14.00,2013-01-09 10:33:00,
2013-01-09 05:38:00,52.0,48.3,30.35,South,182,0.0,0.0,87,0.00,,---,0.00,VWS V14.00,2013-01-09 10:38:00,
2013-01-09 05:40:00,51.2,47.8,30.35,South,182,0.0,0.0,88,0.00,,---,0.00,VWS V14.00,2013-01-09 10:40:00,
2013-01-09 05:43:00,51.9,48.2,30.35,South,182,0.0,1.0,87,0.00,,---,0.00,VWS V14.00,2013-01-09 10:43:00,
2013-01-09 05:48:00,51.9,48.2,30.35,South,182,0.0,1.0,87,0.00,,---,0.00,VWS V14.00,2013-01-09 10:48:00,
2013-01-09 05:50:00,51.0,47.6,30.36,South,182,0.0,0.0,88,0.00,,---,0.00,VWS V14.00,2013-01-09 10:50:00,
2013-01-09 05:53:00,51.9,48.2,30.35,South,182,0.0,0.0,87,0.00,,---,0.00,VWS V14.00,2013-01-09 10:53:00,
2013-01-09 05:58:00,51.8,48.1,30.35,South,182,0.0,0.0,87,0.00,,---,0.00,VWS V14.00,2013-01-09 10:58:00,
2013-01-09 06:00:00,50.9,47.5,30.36,South,182,0.0,0.0,88,0.00,,---,0.00,VWS V14.00,2013-01-09 11:00:00,
2013-01-09 06:03:00,51.7,48.0,30.35,South,182,0.0,0.0,87,0.00,,---,0.00,VWS V14.00,2013-01-09 11:03:00,
2013-01-09 06:08:00,51.7,48.0,30.35,South,182,0.0,0.0,87,0.00,,---,0.00,VWS V14.00,2013-01-09 11:08:00,
2013-01-09 06:10:00,50.8,47.4,30.36,South,182,0.0,0.0,88,0.00,,---,0.00,VWS V14.00,2013-01-09 11:10:00,
2013-01-09 06:13:00,51.6,48.2,30.35,South,182,0.0,0.0,88,0.00,,---,0.00,VWS V14.00,2013-01-09 11:13:00,
2013-01-09 06:18:00,51.6,48.2,30.35,South,182,0.0,0.0,88,0.00,,---,0.00,VWS V14.00,2013-01-09 11:18:00,
2013-01-09 06:20:00,50.7,47.6,30.36,South,182,0.0,0.0,89,0.00,,---,0.00,VWS V14.00,2013-01-09 11:20:00,
2013-01-09 06:22:00,51.5,48.1,30.36,South,182,0.0,0.0,88,0.00,,---,0.00,VWS V14.00,2013-01-09 11:22:00,
2013-01-09 06:27:00,51.4,48.0,30.35,South,182,0.0,0.0,88,0.00,,---,0.00,VWS V14.00,2013-01-09 11:27:00,
2013-01-09 06:30:00,50.6,47.5,30.36,South,182,0.0,0.0,89,0.00,,---,0.00,VWS V14.00,2013-01-09 11:30:00,
2013-01-09 06:33:00,51.3,47.9,30.35,South,182,0.0,0.0,88,0.00,,---,0.00,VWS V14.00,2013-01-09 11:33:00,
2013-01-09 06:38:00,51.2,47.8,30.35,South,182,0.0,0.0,88,0.00,,---,0.00,VWS V14.00,2013-01-09 11:38:00,
2013-01-09 06:40:00,50.5,47.4,30.37,South,182,0.0,0.0,89,0.00,,---,0.00,VWS V14.00,2013-01-09 11:40:00,
2013-01-09 06:42:00,51.1,47.7,30.35,South,182,0.0,0.0,88,0.00,,---,0.00,VWS V14.00,2013-01-09 11:42:00,
2013-01-09 06:48:00,51.0,47.6,30.36,South,182,0.0,0.0,88,0.00,,---,0.00,VWS V14.00,2013-01-09 11:48:00,
2013-01-09 06:50:00,50.5,47.4,30.37,South,182,0.0,0.0,89,0.00,,---,0.00,VWS V14.00,2013-01-09 11:50:00,
2013-01-09 06:53:00,51.0,47.6,30.36,South,182,0.0,0.0,88,0.00,,---,0.00,VWS V14.00,2013-01-09 11:53:00,
2013-01-09 06:57:00,50.9,47.5,30.36,South,182,0.0,0.0,88,0.00,,---,0.00,VWS V14.00,2013-01-09 11:57:00,
2013-01-09 07:00:00,50.4,47.6,30.38,South,182,0.0,0.0,90,0.00,,---,0.00,VWS V14.00,2013-01-09 12:00:00,
2013-01-09 07:03:00,50.9,47.5,30.36,South,182,0.0,0.0,88,0.00,,---,0.00,VWS V14.00,2013-01-09 12:03:00,
2013-01-09 07:08:00,50.8,47.4,30.36,South,182,0.0,0.0,88,0.00,,---,0.00,VWS V14.00,2013-01-09 12:08:00,
2013-01-09 07:10:00,50.4,47.6,30.39,South,182,0.0,0.0,90,0.00,,---,0.00,VWS V14.00,2013-01-09 12:10:00,
2013-01-09 07:13:00,50.8,47.4,30.37,South,182,0.0,0.0,88,0.00,,---,0.00,VWS V14.00,2013-01-09 12:13:00,
2013-01-09 07:18:00,50.8,47.7,30.37,South,182,0.0,0.0,89,0.00,,---,0.00,VWS V14.00,2013-01-09 12:18:00,
2013-01-09 07:20:00,50.5,48.0,30.38,South,182,0.0,0.0,91,0.00,,---,0.00,VWS V14.00,2013-01-09 12:20:00,
2013-01-09 07:23:00,50.7,47.6,30.36,South,182,0.0,0.0,89,0.00,,---,0.00,VWS V14.00,2013-01-09 12:23:00,
2013-01-09 07:28:00,50.6,47.5,30.37,South,182,0.0,0.0,89,0.00,,---,0.00,VWS V14.00,2013-01-09 12:28:00,
2013-01-09 07:30:00,50.6,48.1,30.38,South,182,0.0,0.0,91,0.00,,---,0.00,VWS V14.00,2013-01-09 12:30:00,
2013-01-09 07:33:00,50.6,47.5,30.37,South,182,0.0,0.0,89,0.00,,---,0.00,VWS V14.00,2013-01-09 12:33:00,
2013-01-09 07:38:00,50.6,47.5,30.37,South,182,0.0,0.0,89,0.00,,---,0.00,VWS V14.00,2013-01-09 12:38:00,
2013-01-09 07:40:00,50.5,48.3,30.38,South,182,0.0,0.0,92,0.00,,---,0.00,VWS V14.00,2013-01-09 12:40:00,
2013-01-09 07:43:00,50.5,47.4,30.37,South,182,0.0,0.0,89,0.00,,---,0.00,VWS V14.00,2013-01-09 12:43:00,
2013-01-09 07:48:00,50.5,47.4,30.37,South,182,0.0,0.0,89,0.00,,---,0.00,VWS V14.00,2013-01-09 12:48:00,
2013-01-09 07:50:00,50.4,48.2,30.39,South,182,0.0,0.0,92,0.00,,---,0.00,VWS V14.00,2013-01-09 12:50:00,
2013-01-09 07:53:00,50.5,47.4,30.37,South,182,0.0,0.0,89,0.00,,---,0.00,VWS V14.00,2013-01-09 12:53:00,
2013-01-09 07:58:00,50.5,47.7,30.38,South,182,0.0,0.0,90,0.00,,---,0.00,VWS V14.00,2013-01-09 12:58:00,
2013-01-09 08:00:00,50.2,48.3,30.39,South,182,0.0,0.0,93,0.00,,---,0.00,VWS V14.00,2013-01-09 13:00:00,
2013-01-09 08:03:00,50.4,47.6,30.38,South,182,0.0,0.0,90,0.00,,---,0.00,VWS V14.00,2013-01-09 13:03:00,
2013-01-09 08:08:00,50.4,47.6,30.38,South,182,0.0,0.0,90,0.00,,---,0.00,VWS V14.00,2013-01-09 13:08:00,
2013-01-09 08:10:00,50.1,48.2,30.40,South,182,0.0,1.0,93,0.00,,---,0.00,VWS V14.00,2013-01-09 13:10:00,
2013-01-09 08:13:00,50.5,47.7,30.38,South,182,0.0,0.0,90,0.00,,---,0.00,VWS V14.00,2013-01-09 13:13:00,
2013-01-09 08:18:00,50.5,48.0,30.38,South,182,0.0,0.0,91,0.00,,---,0.00,VWS V14.00,2013-01-09 13:18:00,
2013-01-09 08:20:00,50.1,48.2,30.41,South,182,0.0,0.0,93,0.00,,---,0.01,VWS V14.00,2013-01-09 13:20:00,
2013-01-09 08:23:00,50.5,48.0,30.38,South,182,0.0,0.0,91,0.00,,---,0.00,VWS V14.00,2013-01-09 13:23:00,
2013-01-09 08:28:00,50.6,48.1,30.38,South,182,0.0,0.0,91,0.00,,---,0.00,VWS V14.00,2013-01-09 13:28:00,
2013-01-09 08:30:00,50.2,48.5,30.41,South,182,0.0,0.0,94,0.00,,---,0.01,VWS V14.00,2013-01-09 13:30:00,
2013-01-09 08:33:00,50.6,48.4,30.38,South,182,0.0,0.0,92,0.00,,---,0.00,VWS V14.00,2013-01-09 13:33:00,
2013-01-09 08:38:00,50.6,48.4,30.38,South,182,0.0,0.0,92,0.00,,---,0.00,VWS V14.00,2013-01-09 13:38:00,
2013-01-09 08:40:00,50.3,48.6,30.42,South,182,0.0,0.0,94,0.00,,---,0.01,VWS V14.00,2013-01-09 13:40:00,
2013-01-09 08:43:00,50.5,48.3,30.39,South,182,0.0,0.0,92,0.00,,---,0.00,VWS V14.00,2013-01-09 13:43:00,
2013-01-09 08:48:00,50.4,48.2,30.39,South,182,0.0,0.0,92,0.00,,---,0.00,VWS V14.00,2013-01-09 13:48:00,
2013-01-09 08:50:00,50.6,49.2,30.42,South,182,0.0,0.0,95,0.00,,---,0.01,VWS V14.00,2013-01-09 13:50:00,
2013-01-09 08:53:00,50.3,48.1,30.39,South,182,0.0,0.0,92,0.00,,---,0.00,VWS V14.00,2013-01-09 13:53:00,
2013-01-09 08:58:00,50.3,48.1,30.39,South,182,0.0,0.0,92,0.00,,---,0.00,VWS V14.00,2013-01-09 13:58:00,
2013-01-09 09:00:00,50.9,49.8,30.42,South,182,0.0,0.0,96,0.00,,---,0.01,VWS V14.00,2013-01-09 14:00:00,
2013-01-09 09:03:00,50.2,48.3,30.39,South,182,0.0,1.0,93,0.00,,---,0.00,VWS V14.00,2013-01-09 14:03:00,
2013-01-09 09:08:00,50.1,48.2,30.40,South,182,0.0,1.0,93,0.00,,---,0.00,VWS V14.00,2013-01-09 14:08:00,
2013-01-09 09:10:00,51.3,50.2,30.42,South,182,0.0,0.0,96,0.00,,---,0.01,VWS V14.00,2013-01-09 14:10:00,
2013-01-09 09:12:00,50.1,48.2,30.40,South,182,0.0,0.0,93,0.00,,---,0.00,VWS V14.00,2013-01-09 14:12:00,
2013-01-09 09:17:00,50.1,48.2,30.41,South,182,0.0,0.0,93,0.00,,---,0.01,VWS V14.00,2013-01-09 14:17:00,
2013-01-09 09:20:00,51.8,50.7,30.43,South,182,0.0,0.0,96,0.00,,---,0.02,VWS V14.00,2013-01-09 14:20:00,
2013-01-09 09:22:00,50.1,48.4,30.41,South,182,0.0,0.0,94,0.00,,---,0.01,VWS V14.00,2013-01-09 14:22:00,
2013-01-09 09:27:00,50.2,48.5,30.41,South,182,0.0,0.0,94,0.00,,---,0.01,VWS V14.00,2013-01-09 14:27:00,
2013-01-09 09:30:00,52.1,51.0,30.42,South,182,0.0,0.0,96,0.00,,---,0.02,VWS V14.00,2013-01-09 14:30:00,
2013-01-09 09:32:00,50.3,48.6,30.41,South,182,0.0,0.0,94,0.00,,---,0.01,VWS V14.00,2013-01-09 14:32:00,
2013-01-09 09:37:00,50.3,48.6,30.42,South,182,0.0,0.0,94,0.00,,---,0.01,VWS V14.00,2013-01-09 14:37:00,
2013-01-09 09:40:00,52.4,51.3,30.42,South,182,0.0,0.0,96,0.04,,---,0.03,VWS V14.00,2013-01-09 14:40:00,
2013-01-09 09:42:00,50.4,48.7,30.42,South,182,0.0,0.0,94,0.00,,---,0.01,VWS V14.00,2013-01-09 14:42:00,
2013-01-09 09:47:00,50.5,49.1,30.42,South,182,0.0,0.0,95,0.00,,---,0.01,VWS V14.00,2013-01-09 14:47:00,
2013-01-09 09:50:00,52.6,51.5,30.42,South,182,0.0,0.0,96,0.00,,---,0.03,VWS V14.00,2013-01-09 14:50:00,
2013-01-09 09:52:00,50.6,49.2,30.42,South,182,0.0,0.0,95,0.00,,---,0.01,VWS V14.00,2013-01-09 14:52:00,
2013-01-09 09:57:00,50.8,49.4,30.42,South,182,0.0,0.0,95,0.00,,---,0.01,VWS V14.00,2013-01-09 14:57:00,
2013-01-09 10:00:00,52.6,51.5,30.42,South,182,0.0,0.0,96,0.00,,---,0.04,VWS V14.00,2013-01-09 15:00:00,
2013-01-09 10:02:00,51.0,49.9,30.43,South,182,0.0,0.0,96,0.00,,---,0.01,VWS V14.00,2013-01-09 15:02:00,
2013-01-09 10:07:00,51.2,50.1,30.42,South,182,0.0,0.0,96,0.00,,---,0.01,VWS V14.00,2013-01-09 15:07:00,
2013-01-09 10:10:00,52.4,51.3,30.42,South,182,0.0,0.0,96,0.05,,---,0.05,VWS V14.00,2013-01-09 15:10:00,
2013-01-09 10:12:00,51.4,50.3,30.42,South,182,0.0,0.0,96,0.00,,---,0.01,VWS V14.00,2013-01-09 15:12:00,
2013-01-09 10:17:00,51.7,50.6,30.42,South,182,0.0,0.0,96,0.00,,---,0.02,VWS V14.00,2013-01-09 15:17:00,
2013-01-09 10:20:00,52.3,51.2,30.42,South,181,0.0,2.0,96,0.05,,---,0.05,VWS V14.00,2013-01-09 15:20:00,
2013-01-09 10:22:00,51.9,50.8,30.43,South,182,0.0,0.0,96,0.00,,---,0.02,VWS V14.00,2013-01-09 15:22:00,
2013-01-09 10:27:00,52.0,50.9,30.42,South,182,0.0,0.0,96,0.00,,---,0.02,VWS V14.00,2013-01-09 15:27:00,
2013-01-09 10:30:00,52.0,50.9,30.42,South,181,0.0,2.0,96,0.00,,---,0.05,VWS V14.00,2013-01-09 15:30:00,
2013-01-09 10:32:00,52.2,51.1,30.42,South,182,0.0,0.0,96,0.04,,---,0.03,VWS V14.00,2013-01-09 15:32:00,
2013-01-09 10:37:00,52.3,51.2,30.42,South,182,0.0,0.0,96,0.04,,---,0.03,VWS V14.00,2013-01-09 15:37:00,
2013-01-09 10:40:00,51.9,50.8,30.41,South,181,0.0,1.0,96,0.00,,---,0.06,VWS V14.00,2013-01-09 15:40:00,
2013-01-09 10:42:00,52.4,51.3,30.42,South,182,0.0,0.0,96,0.04,,---,0.03,VWS V14.00,2013-01-09 15:42:00,
2013-01-09 10:47:00,52.6,51.5,30.42,South,182,0.0,0.0,96,0.04,,---,0.03,VWS V14.00,2013-01-09 15:47:00,
2013-01-09 10:50:00,51.7,50.6,30.39,SE,142,0.0,4.0,96,0.00,,---,0.06,VWS V14.00,2013-01-09 15:50:00,
2013-01-09 10:52:00,52.6,51.5,30.42,South,182,0.0,0.0,96,0.00,,---,0.03,VWS V14.00,2013-01-09 15:52:00,
2013-01-09 10:57:00,52.7,51.6,30.42,South,182,0.0,0.0,96,0.00,,---,0.04,VWS V14.00,2013-01-09 15:57:00,
2013-01-09 11:00:00,51.6,50.5,30.39,SE,124,0.0,4.0,96,0.00,,---,0.06,VWS V14.00,2013-01-09 16:00:00,
2013-01-09 11:02:00,52.6,51.5,30.42,South,182,0.0,0.0,96,0.00,,---,0.04,VWS V14.00,2013-01-09 16:02:00,
2013-01-09 11:07:00,52.4,51.3,30.42,South,182,0.0,0.0,96,0.00,,---,0.04,VWS V14.00,2013-01-09 16:07:00,
2013-01-09 11:10:00,51.6,50.5,30.39,SE,124,0.0,1.0,96,0.00,,---,0.06,VWS V14.00,2013-01-09 16:10:00,
2013-01-09 11:12:00,52.3,51.2,30.42,South,182,0.0,1.0,96,0.05,,---,0.05,VWS V14.00,2013-01-09 16:12:00,
2013-01-09 11:17:00,52.3,51.2,30.42,South,181,0.0,2.0,96,0.05,,---,0.05,VWS V14.00,2013-01-09 16:17:00,
2013-01-09 11:20:00,51.7,50.9,30.39,SE,124,0.0,0.0,97,0.00,,---,0.06,VWS V14.00,2013-01-09 16:20:00,
2013-01-09 11:22:00,52.2,51.1,30.42,South,181,0.0,1.0,96,0.05,,---,0.05,VWS V14.00,2013-01-09 16:22:00,
2013-01-09 11:27:00,52.1,51.0,30.42,South,181,0.0,2.0,96,0.00,,---,0.05,VWS V14.00,2013-01-09 16:27:00,
2013-01-09 11:30:00,51.9,51.1,30.40,SE,124,0.0,0.0,97,0.00,,---,0.06,VWS V14.00,2013-01-09 16:30:00,
2013-01-09 11:32:00,51.9,50.8,30.42,South,181,0.0,0.0,96,0.00,,---,0.05,VWS V14.00,2013-01-09 16:32:00,
2013-01-09 11:37:00,51.9,50.8,30.42,South,181,0.0,1.0,96,0.00,,---,0.05,VWS V14.00,2013-01-09 16:37:00,
2013-01-09 11:40:00,52.1,51.3,30.39,SE,124,0.0,0.0,97,0.00,,---,0.06,VWS V14.00,2013-01-09 16:40:00,
2013-01-09 11:42:00,51.9,50.8,30.41,South,181,0.0,1.0,96,0.00,,---,0.06,VWS V14.00,2013-01-09 16:42:00,
2013-01-09 11:47:00,51.8,50.7,30.40,South,171,0.0,4.0,96,0.00,,---,0.06,VWS V14.00,2013-01-09 16:47:00,
2013-01-09 11:50:00,52.4,51.6,30.39,SE,124,0.0,1.0,97,0.00,,---,0.06,VWS V14.00,2013-01-09 16:50:00,
2013-01-09 11:52:00,51.7,50.6,30.39,ESE,114,0.0,4.0,96,0.00,,---,0.06,VWS V14.00,2013-01-09 16:52:00,
2013-01-09 11:57:00,51.6,50.5,30.39,SE,124,0.0,4.0,96,0.00,,---,0.06,VWS V14.00,2013-01-09 16:57:00,
2013-01-09 12:02:00,51.6,50.5,30.39,SE,124,0.0,0.0,96,0.00,,---,0.06,VWS V14.00,2013-01-09 17:02:00,
2013-01-09 12:07:00,51.6,50.5,30.39,SE,124,0.0,1.0,96,0.00,,---,0.06,VWS V14.00,2013-01-09 17:07:00,
2013-01-09 12:10:00,52.6,51.8,30.37,SE,124,0.0,1.0,97,0.00,,---,0.06,VWS V14.00,2013-01-09 17:10:00,
2013-01-09 12:12:00,51.6,50.5,30.39,SE,124,0.0,0.0,96,0.00,,---,0.06,VWS V14.00,2013-01-09 17:12:00,
2013-01-09 12:17:00,51.7,50.9,30.39,SE,124,0.0,0.0,97,0.00,,---,0.06,VWS V14.00,2013-01-09 17:17:00,
2013-01-09 12:20:00,52.8,52.0,30.37,SE,124,0.0,1.0,97,0.00,,---,0.06,VWS V14.00,2013-01-09 17:20:00,
2013-01-09 12:22:00,51.8,51.0,30.40,SE,124,0.0,0.0,97,0.00,,---,0.06,VWS V14.00,2013-01-09 17:22:00,
2013-01-09 12:27:00,51.9,51.1,30.39,SE,124,0.0,0.0,97,0.00,,---,0.06,VWS V14.00,2013-01-09 17:27:00,
2013-01-09 12:30:00,53.0,52.2,30.37,SE,124,0.0,0.0,97,0.00,,---,0.06,VWS V14.00,2013-01-09 17:30:00,
2013-01-09 12:32:00,52.0,51.2,30.39,SE,124,0.0,0.0,97,0.00,,---,0.06,VWS V14.00,2013-01-09 17:32:00,
2013-01-09 12:37:00,52.1,51.3,30.39,SE,124,0.0,0.0,97,0.00,,---,0.06,VWS V14.00,2013-01-09 17:37:00,
2013-01-09 12:40:00,53.4,52.6,30.36,SE,124,0.0,1.0,97,0.00,,---,0.06,VWS V14.00,2013-01-09 17:40:00,
2013-01-09 12:42:00,52.2,51.4,30.39,SE,124,0.0,0.0,97,0.00,,---,0.06,VWS V14.00,2013-01-09 17:42:00,
2013-01-09 12:47:00,52.3,51.5,30.39,SE,124,0.0,0.0,97,0.00,,---,0.06,VWS V14.00,2013-01-09 17:47:00,
2013-01-09 12:50:00,53.8,53.0,30.36,SE,124,0.0,1.0,97,0.00,,---,0.06,VWS V14.00,2013-01-09 17:50:00,
2013-01-09 12:52:00,52.4,51.6,30.39,SE,124,0.0,1.0,97,0.00,,---,0.06,VWS V14.00,2013-01-09 17:52:00,
2013-01-09 12:57:00,52.4,51.6,30.38,SE,124,0.0,1.0,97,0.00,,---,0.06,VWS V14.00,2013-01-09 17:57:00,
2013-01-09 13:00:00,53.3,52.2,30.35,East,80,1.0,6.0,96,0.00,,---,0.06,VWS V14.00,2013-01-09 18:00:00,
2013-01-09 13:02:00,52.5,51.7,30.38,SE,124,0.0,0.0,97,0.00,,---,0.06,VWS V14.00,2013-01-09 18:02:00,
2013-01-09 13:07:00,52.6,51.8,30.38,SE,124,0.0,0.0,97,0.00,,---,0.06,VWS V14.00,2013-01-09 18:07:00,
2013-01-09 13:10:00,53.3,52.5,30.36,NE,56,0.0,2.0,97,0.00,,---,0.06,VWS V14.00,2013-01-09 18:10:00,
2013-01-09 13:12:00,52.7,51.9,30.37,SE,124,0.0,0.0,97,0.00,,---,0.06,VWS V14.00,2013-01-09 18:12:00,
2013-01-09 13:17:00,52.8,52.0,30.37,SE,124,0.0,1.0,97,0.00,,---,0.06,VWS V14.00,2013-01-09 18:17:00,
2013-01-09 13:20:00,53.4,52.3,30.36,NE,56,0.0,1.0,96,0.00,,---,0.06,VWS V14.00,2013-01-09 18:20:00,
2013-01-09 13:22:00,52.8,52.0,30.37,SE,124,0.0,0.0,97,0.00,,---,0.06,VWS V14.00,2013-01-09 18:22:00,
2013-01-09 13:27:00,52.9,52.1,30.37,SE,124,0.0,0.0,97,0.00,,---,0.06,VWS V14.00,2013-01-09 18:27:00,
2013-01-09 13:30:00,53.5,52.4,30.35,ENE,61,0.0,1.0,96,0.00,,---,0.06,VWS V14.00,2013-01-09 18:30:00,
2013-01-09 13:32:00,53.1,52.3,30.37,SE,124,0.0,1.0,97,0.00,,---,0.06,VWS V14.00,2013-01-09 18:32:00,
2013-01-09 13:37:00,53.3,52.5,30.36,SE,124,0.0,1.0,97,0.00,,---,0.06,VWS V14.00,2013-01-09 18:37:00,
2013-01-09 13:40:00,53.8,52.7,30.36,NE,34,1.0,2.0,96,0.00,,---,0.06,VWS V14.00,2013-01-09 18:40:00,
2013-01-09 13:41:00,53.5,52.7,30.36,SE,124,0.0,1.0,97,0.00,,---,0.06,VWS V14.00,2013-01-09 18:41:00,
2013-01-09 13:42:00,53.5,52.7,30.36,SE,124,0.0,1.0,97,0.00,,---,0.06,VWS V14.00,2013-01-09 18:42:00,
2013-01-09 13:44:00,53.5,52.7,30.36,SE,124,0.0,1.0,97,0.00,,---,0.06,VWS V14.00,2013-01-09 18:44:00,
2013-01-09 13:45:00,53.6,52.8,30.36,SE,124,0.0,1.0,97,0.00,,---,0.06,VWS V14.00,2013-01-09 18:45:00,
2013-01-09 13:48:00,53.7,52.9,30.36,SE,124,0.0,1.0,97,0.00,,---,0.06,VWS V14.00,2013-01-09 18:48:00,
2013-01-09 13:50:00,53.9,52.8,30.36,NE,34,0.0,1.0,96,0.00,,---,0.06,VWS V14.00,2013-01-09 18:50:00,
2013-01-09 13:53:00,53.8,53.0,30.35,East,90,1.0,3.0,97,0.00,,---,0.06,VWS V14.00,2013-01-09 18:53:00,
2013-01-09 13:58:00,53.4,52.6,30.35,East,80,0.0,6.0,97,0.00,,---,0.06,VWS V14.00,2013-01-09 18:58:00,
2013-01-09 14:00:00,54.1,53.0,30.36,NE,34,0.0,1.0,96,0.00,,---,0.06,VWS V14.00,2013-01-09 19:00:00,
2013-01-09 14:03:00,53.3,52.2,30.36,NE,56,0.0,2.0,96,0.00,,---,0.06,VWS V14.00,2013-01-09 19:03:00,
2013-01-09 14:08:00,53.3,52.2,30.36,NE,56,0.0,2.0,96,0.00,,---,0.06,VWS V14.00,2013-01-09 19:08:00,
2013-01-09 14:10:00,54.2,53.1,30.37,NE,34,0.0,0.0,96,0.00,,---,0.06,VWS V14.00,2013-01-09 19:10:00,
2013-01-09 14:13:00,53.4,52.3,30.36,NE,56,0.0,0.0,96,0.00,,---,0.06,VWS V14.00,2013-01-09 19:13:00,
2013-01-09 14:18:00,53.4,52.3,30.36,NE,56,0.0,0.0,96,0.00,,---,0.06,VWS V14.00,2013-01-09 19:18:00,
2013-01-09 14:20:00,54.4,53.3,30.37,NE,34,0.0,1.0,96,0.00,,---,0.06,VWS V14.00,2013-01-09 19:20:00,
2013-01-09 14:23:00,53.5,52.4,30.35,ENE,60,0.0,1.0,96,0.00,,---,0.06,VWS V14.00,2013-01-09 19:23:00,
2013-01-09 14:28:00,53.5,52.4,30.35,ENE,60,0.0,1.0,96,0.00,,---,0.06,VWS V14.00,2013-01-09 19:28:00,
2013-01-09 14:30:00,54.8,53.7,30.37,NE,34,0.0,0.0,96,0.00,,---,0.06,VWS V14.00,2013-01-09 19:30:00,
2013-01-09 14:33:00,53.6,52.5,30.35,ENE,61,1.0,1.0,96,0.00,,---,0.06,VWS V14.00,2013-01-09 19:33:00,
2013-01-09 14:38:00,53.7,52.6,30.36,NNE,32,0.0,2.0,96,0.00,,---,0.06,VWS V14.00,2013-01-09 19:38:00,
2013-01-09 14:40:00,54.8,53.4,30.37,NE,34,0.0,1.0,95,0.00,,---,0.06,VWS V14.00,2013-01-09 19:40:00,
2013-01-09 14:43:00,53.8,52.7,30.36,NE,34,0.0,1.0,96,0.00,,---,0.06,VWS V14.00,2013-01-09 19:43:00,
2013-01-09 14:48:00,53.9,52.8,30.36,NE,34,0.0,1.0,96,0.00,,---,0.06,VWS V14.00,2013-01-09 19:48:00,
2013-01-09 14:50:00,55.0,53.6,30.38,NE,34,0.0,0.0,95,0.00,,---,0.06,VWS V14.00,2013-01-09 19:50:00,
2013-01-09 14:53:00,54.0,52.9,30.36,NE,34,0.0,0.0,96,0.00,,---,0.06,VWS V14.00,2013-01-09 19:53:00,
2013-01-09 14:58:00,54.0,52.9,30.36,NE,34,0.0,1.0,96,0.00,,---,0.06,VWS V14.00,2013-01-09 19:58:00,
2013-01-09 15:00:00,55.0,53.6,30.38,NE,34,0.0,0.0,95,0.00,,---,0.06,VWS V14.00,2013-01-09 20:00:00,
2013-01-09 15:03:00,54.1,53.0,30.36,NE,34,0.0,0.0,96,0.00,,---,0.06,VWS V14.00,2013-01-09 20:03:00,
2013-01-09 15:08:00,54.2,53.1,30.37,NE,34,0.0,0.0,96,0.00,,---,0.06,VWS V14.00,2013-01-09 20:08:00,
2013-01-09 15:10:00,55.0,53.6,30.38,NE,34,0.0,1.0,95,0.00,,---,0.06,VWS V14.00,2013-01-09 20:10:00,
2013-01-09 15:13:00,54.2,53.1,30.36,NE,34,0.0,0.0,96,0.00,,---,0.06,VWS V14.00,2013-01-09 20:13:00,
2013-01-09 15:18:00,54.4,53.3,30.37,NE,34,0.0,1.0,96,0.00,,---,0.06,VWS V14.00,2013-01-09 20:18:00,
2013-01-09 15:20:00,55.0,53.6,30.38,NE,34,0.0,1.0,95,0.00,,---,0.06,VWS V14.00,2013-01-09 20:20:00,
2013-01-09 15:23:00,54.5,53.4,30.37,NE,34,0.0,0.0,96,0.00,,---,0.06,VWS V14.00,2013-01-09 20:23:00,
2013-01-09 15:28:00,54.6,53.5,30.37,NE,34,0.0,0.0,96,0.00,,---,0.06,VWS V14.00,2013-01-09 20:28:00,
2013-01-09 15:30:00,55.1,53.7,30.38,NE,34,0.0,0.0,95,0.00,,---,0.06,VWS V14.00,2013-01-09 20:30:00,
2013-01-09 15:33:00,54.8,53.7,30.37,NE,34,0.0,1.0,96,0.00,,---,0.06,VWS V14.00,2013-01-09 20:33:00,
2013-01-09 15:38:00,54.8,53.4,30.37,NE,34,0.0,1.0,95,0.00,,---,0.06,VWS V14.00,2013-01-09 20:38:00,
2013-01-09 15:40:00,55.0,53.6,30.38,NE,34,0.0,0.0,95,0.00,,---,0.06,VWS V14.00,2013-01-09 20:40:00,
2013-01-09 15:43:00,54.9,53.5,30.37,NE,34,0.0,0.0,95,0.00,,---,0.06,VWS V14.00,2013-01-09 20:43:00,
2013-01-09 15:48:00,55.0,53.6,30.38,NE,34,0.0,0.0,95,0.00,,---,0.06,VWS V14.00,2013-01-09 20:48:00,
2013-01-09 15:50:00,54.7,53.3,30.38,NE,48,0.0,2.0,95,0.00,,---,0.07,VWS V14.00,2013-01-09 20:50:00,
2013-01-09 15:53:00,55.0,53.6,30.37,NE,34,0.0,0.0,95,0.00,,---,0.06,VWS V14.00,2013-01-09 20:53:00,
2013-01-09 15:58:00,55.0,53.6,30.38,NE,34,0.0,0.0,95,0.00,,---,0.06,VWS V14.00,2013-01-09 20:58:00,
2013-01-09 16:00:00,54.3,52.9,30.38,NE,45,0.0,2.0,95,0.00,,---,0.07,VWS V14.00,2013-01-09 21:00:00,
2013-01-09 16:03:00,55.0,53.6,30.38,NE,34,0.0,1.0,95,0.00,,---,0.06,VWS V14.00,2013-01-09 21:03:00,
2013-01-09 16:08:00,55.0,53.6,30.38,NE,34,0.0,1.0,95,0.00,,---,0.06,VWS V14.00,2013-01-09 21:08:00,
2013-01-09 16:10:00,53.9,52.2,30.38,NE,38,0.0,3.0,94,0.00,,---,0.07,VWS V14.00,2013-01-09 21:10:00,
2013-01-09 16:13:00,55.0,53.6,30.38,NE,34,0.0,1.0,95,0.00,,---,0.06,VWS V14.00,2013-01-09 21:13:00,
2013-01-09 16:18:00,55.0,53.6,30.38,NE,34,0.0,1.0,95,0.00,,---,0.06,VWS V14.00,2013-01-09 21:18:00,
2013-01-09 16:20:00,53.5,52.1,30.38,NE,38,0.0,1.0,95,0.00,,---,0.07,VWS V14.00,2013-01-09 21:20:00,
2013-01-09 16:23:00,55.0,53.6,30.38,NE,34,0.0,0.0,95,0.00,,---,0.06,VWS V14.00,2013-01-09 21:23:00,
2013-01-09 16:28:00,55.0,53.6,30.38,NE,34,0.0,0.0,95,0.00,,---,0.06,VWS V14.00,2013-01-09 21:28:00,
2013-01-09 16:30:00,53.3,51.9,30.38,NE,38,0.0,1.0,95,0.00,,---,0.07,VWS V14.00,2013-01-09 21:30:00,
2013-01-09 16:33:00,55.0,53.6,30.38,NE,34,0.0,0.0,95,0.00,,---,0.06,VWS V14.00,2013-01-09 21:33:00,
2013-01-09 16:38:00,55.0,53.6,30.38,NE,34,0.0,0.0,95,0.00,,---,0.06,VWS V14.00,2013-01-09 21:38:00,
2013-01-09 16:40:00,53.0,51.6,30.38,NE,38,0.0,0.0,95,0.00,,---,0.07,VWS V14.00,2013-01-09 21:40:00,
2013-01-09 16:43:00,55.0,53.6,30.38,NE,34,0.0,1.0,95,0.00,,---,0.07,VWS V14.00,2013-01-09 21:43:00,
2013-01-09 16:48:00,54.8,53.4,30.38,NE,48,0.0,2.0,95,0.00,,---,0.07,VWS V14.00,2013-01-09 21:48:00,
2013-01-09 16:50:00,52.7,51.3,30.38,NE,38,0.0,0.0,95,0.00,,---,0.07,VWS V14.00,2013-01-09 21:50:00,
2013-01-09 16:53:00,54.6,52.9,30.38,NE,51,0.0,2.0,94,0.00,,---,0.07,VWS V14.00,2013-01-09 21:53:00,
2013-01-09 16:58:00,54.4,52.7,30.38,NE,45,0.0,2.0,94,0.00,,---,0.07,VWS V14.00,2013-01-09 21:58:00,
2013-01-09 17:00:00,52.4,51.0,30.38,NE,38,0.0,0.0,95,0.00,,---,0.07,VWS V14.00,2013-01-09 22:00:00,
2013-01-09 17:03:00,54.2,52.5,30.39,NE,36,0.0,3.0,94,0.00,,---,0.07,VWS V14.00,2013-01-09 22:03:00,
2013-01-09 17:08:00,53.9,52.2,30.38,NE,38,0.0,3.0,94,0.00,,---,0.07,VWS V14.00,2013-01-09 22:08:00,
2013-01-09 17:10:00,52.1,50.7,30.37,NE,38,0.0,0.0,95,0.00,,---,0.07,VWS V14.00,2013-01-09 22:10:00,
2013-01-09 17:13:00,53.8,52.1,30.38,NE,38,0.0,0.0,94,0.00,,---,0.07,VWS V14.00,2013-01-09 22:13:00,
2013-01-09 17:18:00,53.6,52.2,30.38,NE,38,0.0,0.0,95,0.00,,---,0.07,VWS V14.00,2013-01-09 22:18:00,
2013-01-09 17:20:00,51.9,50.5,30.37,NE,38,0.0,0.0,95,0.00,,---,0.07,VWS V14.00,2013-01-09 22:20:00,
2013-01-09 17:23:00,53.4,52.0,30.38,NE,38,0.0,1.0,95,0.00,,---,0.07,VWS V14.00,2013-01-09 22:23:00,
2013-01-09 17:28:00,53.3,51.9,30.38,NE,38,0.0,1.0,95,0.00,,---,0.07,VWS V14.00,2013-01-09 22:28:00,
2013-01-09 17:30:00,51.7,50.3,30.37,NE,38,0.0,0.0,95,0.00,,---,0.07,VWS V14.00,2013-01-09 22:30:00,
2013-01-09 17:33:00,53.2,51.8,30.38,NE,38,0.0,0.0,95,0.00,,---,0.07,VWS V14.00,2013-01-09 22:33:00,
2013-01-09 17:38:00,53.1,51.7,30.38,NE,38,0.0,0.0,95,0.00,,---,0.07,VWS V14.00,2013-01-09 22:38:00,
2013-01-09 17:40:00,51.5,50.4,30.36,NE,38,0.0,0.0,96,0.00,,---,0.07,VWS V14.00,2013-01-09 22:40:00,
2013-01-09 17:43:00,52.9,51.5,30.38,NE,38,0.0,0.0,95,0.00,,---,0.07,VWS V14.00,2013-01-09 22:43:00,
2013-01-09 17:48:00,52.7,51.3,30.38,NE,38,0.0,0.0,95,0.00,,---,0.07,VWS V14.00,2013-01-09 22:48:00,
2013-01-09 17:50:00,51.3,50.2,30.37,NE,38,0.0,0.0,96,0.00,,---,0.07,VWS V14.00,2013-01-09 22:50:00,
2013-01-09 17:53:00,52.6,51.2,30.38,NE,38,0.0,0.0,95,0.00,,---,0.07,VWS V14.00,2013-01-09 22:53:00,
2013-01-09 17:58:00,52.4,51.0,30.38,NE,38,0.0,0.0,95,0.00,,---,0.07,VWS V14.00,2013-01-09 22:58:00,
2013-01-09 18:00:00,51.2,50.1,30.36,NE,38,0.0,0.0,96,0.00,,---,0.07,VWS V14.00,2013-01-09 23:00:00,
2013-01-09 18:03:00,52.3,50.9,30.38,NE,38,0.0,0.0,95,0.00,,---,0.07,VWS V14.00,2013-01-09 23:03:00,
2013-01-09 18:08:00,52.2,50.8,30.38,NE,38,0.0,0.0,95,0.00,,---,0.07,VWS V14.00,2013-01-09 23:08:00,
2013-01-09 18:10:00,51.0,49.9,30.37,NE,38,0.0,0.0,96,0.00,,---,0.07,VWS V14.00,2013-01-09 23:10:00,
2013-01-09 18:13:00,52.1,50.7,30.37,NE,38,0.0,0.0,95,0.00,,---,0.07,VWS V14.00,2013-01-09 23:13:00,
2013-01-09 18:18:00,51.9,50.5,30.37,NE,38,0.0,0.0,95,0.00,,---,0.07,VWS V14.00,2013-01-09 23:18:00,
2013-01-09 18:20:00,50.9,49.8,30.37,NE,38,0.0,0.0,96,0.00,,---,0.07,VWS V14.00,2013-01-09 23:20:00,
2013-01-09 18:23:00,51.8,50.4,30.37,NE,38,0.0,0.0,95,0.00,,---,0.07,VWS V14.00,2013-01-09 23:23:00,
2013-01-09 18:28:00,51.7,50.3,30.37,NE,38,0.0,0.0,95,0.00,,---,0.07,VWS V14.00,2013-01-09 23:28:00,
2013-01-09 18:30:00,50.9,49.8,30.37,NE,38,0.0,0.0,96,0.00,,---,0.07,VWS V14.00,2013-01-09 23:30:00,
2013-01-09 18:33:00,51.6,50.2,30.37,NE,38,0.0,0.0,95,0.00,,---,0.07,VWS V14.00,2013-01-09 23:33:00,
2013-01-09 18:38:00,51.5,50.1,30.37,NE,38,0.0,0.0,95,0.00,,---,0.07,VWS V14.00,2013-01-09 23:38:00,
2013-01-09 18:40:00,50.8,49.7,30.37,NE,38,0.0,0.0,96,0.00,,---,0.07,VWS V14.00,2013-01-09 23:40:00,
2013-01-09 18:43:00,51.5,50.4,30.36,NE,38,0.0,0.0,96,0.00,,---,0.07,VWS V14.00,2013-01-09 23:43:00,
2013-01-09 18:48:00,51.4,50.3,30.36,NE,38,0.0,0.0,96,0.00,,---,0.07,VWS V14.00,2013-01-09 23:48:00,
2013-01-09 18:50:00,50.8,50.0,30.39,NE,38,0.0,0.0,97,0.00,,---,0.07,VWS V14.00,2013-01-09 23:50:00,
2013-01-09 18:53:00,51.3,50.2,30.37,NE,38,0.0,0.0,96,0.00,,---,0.07,VWS V14.00,2013-01-09 23:53:00,
2013-01-09 18:58:00,51.2,50.1,30.36,NE,38,0.0,0.0,96,0.00,,---,0.07,VWS V14.00,2013-01-09 23:58:00,
2013-01-09 19:00:00,50.7,49.9,30.39,NE,38,0.0,0.0,97,0.00,,---,0.07,VWS V14.00,2013-01-10 00:00:00,
2013-01-09 19:03:00,51.2,50.1,30.36,NE,38,0.0,0.0,96,0.00,,---,0.07,VWS V14.00,2013-01-10 00:03:00,
2013-01-09 19:08:00,51.1,50.0,30.36,NE,38,0.0,0.0,96,0.00,,---,0.07,VWS V14.00,2013-01-10 00:08:00,
2013-01-09 19:10:00,50.6,49.8,30.40,East,92,0.0,1.0,97,0.00,,---,0.07,VWS V14.00,2013-01-10 00:10:00,
2013-01-09 19:13:00,51.0,49.9,30.37,NE,38,0.0,0.0,96,0.00,,---,0.07,VWS V14.00,2013-01-10 00:13:00,
2013-01-09 19:18:00,50.9,49.8,30.37,NE,38,0.0,0.0,96,0.00,,---,0.07,VWS V14.00,2013-01-10 00:18:00,
2013-01-09 19:20:00,50.9,50.1,30.41,NNW,337,0.0,4.0,97,0.00,,---,0.07,VWS V14.00,2013-01-10 00:20:00,
2013-01-09 19:23:00,50.9,49.8,30.37,NE,38,0.0,0.0,96,0.00,,---,0.07,VWS V14.00,2013-01-10 00:23:00,
2013-01-09 19:28:00,50.9,49.8,30.37,NE,38,0.0,0.0,96,0.00,,---,0.07,VWS V14.00,2013-01-10 00:28:00,
2013-01-09 19:30:00,51.1,50.3,30.42,NNW,337,0.0,0.0,97,0.00,,---,0.07,VWS V14.00,2013-01-10 00:30:00,
2013-01-09 19:33:00,50.9,49.8,30.37,NE,38,0.0,0.0,96,0.00,,---,0.07,VWS V14.00,2013-01-10 00:33:00,
2013-01-09 19:38:00,50.8,49.7,30.37,NE,38,0.0,0.0,96,0.00,,---,0.07,VWS V14.00,2013-01-10 00:38:00,
2013-01-09 19:40:00,51.2,50.4,30.42,NNW,337,0.0,0.0,97,0.00,,---,0.07,VWS V14.00,2013-01-10 00:40:00,
2013-01-09 19:43:00,50.8,49.7,30.38,NE,38,0.0,0.0,96,0.00,,---,0.07,VWS V14.00,2013-01-10 00:43:00,
2013-01-09 19:48:00,50.8,50.0,30.38,NE,38,0.0,0.0,97,0.00,,---,0.07,VWS V14.00,2013-01-10 00:48:00,
2013-01-09 19:50:00,51.3,50.5,30.42,NNW,337,0.0,0.0,97,0.00,,---,0.08,VWS V14.00,2013-01-10 00:50:00,
2013-01-09 19:53:00,50.7,49.9,30.39,NE,38,0.0,0.0,97,0.00,,---,0.07,VWS V14.00,2013-01-10 00:53:00,
2013-01-09 19:58:00,50.7,49.9,30.39,NE,38,0.0,0.0,97,0.00,,---,0.07,VWS V14.00,2013-01-10 00:58:00,
2013-01-09 20:00:00,51.4,50.6,30.43,NNW,346,1.0,3.0,97,0.00,,---,0.08,VWS V14.00,2013-01-10 01:00:00,
2013-01-09 20:03:00,50.7,49.9,30.40,NE,38,0.0,0.0,97,0.00,,---,0.07,VWS V14.00,2013-01-10 01:03:00,
2013-01-09 20:08:00,50.6,49.8,30.40,NE,38,0.0,0.0,97,0.00,,---,0.07,VWS V14.00,2013-01-10 01:08:00,
2013-01-09 20:10:00,51.5,50.7,30.43,NNE,27,0.0,2.0,97,0.00,,---,0.08,VWS V14.00,2013-01-10 01:10:00,
2013-01-09 20:13:00,50.6,49.8,30.40,East,92,0.0,0.0,97,0.00,,---,0.07,VWS V14.00,2013-01-10 01:13:00,
2013-01-09 20:18:00,50.8,50.0,30.41,WNW,288,1.0,4.0,97,0.00,,---,0.07,VWS V14.00,2013-01-10 01:18:00,
2013-01-09 20:20:00,51.5,50.7,30.43,WNW,294,0.0,2.0,97,0.00,,---,0.08,VWS V14.00,2013-01-10 01:20:00,
2013-01-09 20:23:00,51.1,50.3,30.41,NNW,337,0.0,0.0,97,0.00,,---,0.07,VWS V14.00,2013-01-10 01:23:00,
2013-01-09 20:28:00,51.1,50.3,30.42,NNW,337,0.0,0.0,97,0.00,,---,0.07,VWS V14.00,2013-01-10 01:28:00,
2013-01-09 20:30:00,51.5,50.7,30.42,WNW,294,0.0,1.0,97,0.00,,---,0.08,VWS V14.00,2013-01-10 01:30:00,
2013-01-09 20:33:00,51.1,50.3,30.41,NNW,337,0.0,0.0,97,0.00,,---,0.07,VWS V14.00,2013-01-10 01:33:00,
2013-01-09 20:38:00,51.2,50.4,30.42,NNW,337,0.0,0.0,97,0.00,,---,0.07,VWS V14.00,2013-01-10 01:38:00,
2013-01-09 20:40:00,51.5,50.7,30.42,ENE,69,0.0,3.0,97,0.00,,---,0.08,VWS V14.00,2013-01-10 01:40:00,
2013-01-09 20:43:00,51.2,50.4,30.42,NNW,337,0.0,0.0,97,0.00,,---,0.07,VWS V14.00,2013-01-10 01:43:00,
2013-01-09 20:48:00,51.2,50.4,30.42,NNW,337,0.0,0.0,97,0.00,,---,0.08,VWS V14.00,2013-01-10 01:48:00,
2013-01-09 20:50:00,51.4,50.6,30.42,ENE,69,0.0,0.0,97,0.00,,---,0.08,VWS V14.00,2013-01-10 01:50:00,
2013-01-09 20:53:00,51.3,50.5,30.43,NNW,337,0.0,0.0,97,0.00,,---,0.08,VWS V14.00,2013-01-10 01:53:00,
2013-01-09 20:58:00,51.4,50.6,30.43,NNW,328,0.0,3.0,97,0.00,,---,0.08,VWS V14.00,2013-01-10 01:58:00,
2013-01-09 21:00:00,51.4,50.6,30.43,ENE,69,0.0,0.0,97,0.00,,---,0.08,VWS V14.00,2013-01-10 02:00:00,
2013-01-09 21:03:00,51.5,50.7,30.43,NNW,346,0.0,1.0,97,0.00,,---,0.08,VWS V14.00,2013-01-10 02:03:00,
2013-01-09 21:08:00,51.5,50.7,30.43,NNW,346,0.0,1.0,97,0.00,,---,0.08,VWS V14.00,2013-01-10 02:08:00,
2013-01-09 21:10:00,51.3,50.5,30.42,ENE,59,0.0,6.0,97,0.00,,---,0.08,VWS V14.00,2013-01-10 02:10:00,
2013-01-09 21:13:00,51.5,50.7,30.43,NNE,27,0.0,1.0,97,0.00,,---,0.08,VWS V14.00,2013-01-10 02:13:00,
2013-01-09 21:18:00,51.5,50.7,30.43,NNE,27,0.0,1.0,97,0.00,,---,0.08,VWS V14.00,2013-01-10 02:18:00,
2013-01-09 21:20:00,51.2,50.4,30.43,North,355,0.0,6.0,97,0.00,,---,0.08,VWS V14.00,2013-01-10 02:20:00,
2013-01-09 21:23:00,51.5,50.7,30.43,WNW,294,0.0,1.0,97,0.00,,---,0.08,VWS V14.00,2013-01-10 02:23:00,
2013-01-09 21:28:00,51.5,50.7,30.43,WNW,294,0.0,1.0,97,0.00,,---,0.08,VWS V14.00,2013-01-10 02:28:00,
2013-01-09 21:30:00,51.1,50.3,30.43,North,355,0.0,0.0,97,0.00,,---,0.08,VWS V14.00,2013-01-10 02:30:00,
2013-01-09 21:33:00,51.5,50.7,30.43,ENE,69,0.0,3.0,97,0.00,,---,0.08,VWS V14.00,2013-01-10 02:33:00,
2013-01-09 21:38:00,51.5,50.7,30.42,ENE,69,0.0,3.0,97,0.00,,---,0.08,VWS V14.00,2013-01-10 02:38:00,
2013-01-09 21:40:00,51.0,50.2,30.42,NNW,327,0.0,2.0,97,0.00,,---,0.08,VWS V14.00,2013-01-10 02:40:00,
2013-01-09 21:43:00,51.5,50.7,30.42,ENE,69,0.0,0.0,97,0.00,,---,0.08,VWS V14.00,2013-01-10 02:43:00,
2013-01-09 21:48:00,51.4,50.6,30.42,ENE,69,0.0,0.0,97,0.00,,---,0.08,VWS V14.00,2013-01-10 02:48:00,
2013-01-09 21:50:00,50.8,50.0,30.42,NNW,327,0.0,1.0,97,0.00,,---,0.08,VWS V14.00,2013-01-10 02:50:00,
2013-01-09 21:53:00,51.4,50.6,30.42,ENE,69,0.0,0.0,97,0.00,,---,0.08,VWS V14.00,2013-01-10 02:53:00,
2013-01-09 21:58:00,51.4,50.6,30.43,ENE,69,0.0,0.0,97,0.00,,---,0.08,VWS V14.00,2013-01-10 02:58:00,
2013-01-09 22:00:00,50.7,49.9,30.42,NNW,328,0.0,1.0,97,0.00,,---,0.08,VWS V14.00,2013-01-10 03:00:00,
2013-01-09 22:03:00,51.4,50.6,30.42,NE,40,0.0,1.0,97,0.00,,---,0.08,VWS V14.00,2013-01-10 03:03:00,
2013-01-09 22:08:00,51.3,50.5,30.42,NE,40,0.0,1.0,97,0.00,,---,0.08,VWS V14.00,2013-01-10 03:08:00,
2013-01-09 22:10:00,50.6,49.8,30.42,NNE,33,0.0,4.0,97,0.00,,---,0.08,VWS V14.00,2013-01-10 03:10:00,
2013-01-09 22:13:00,51.3,50.5,30.43,NE,46,0.0,1.0,97,0.00,,---,0.08,VWS V14.00,2013-01-10 03:13:00,
2013-01-09 22:18:00,51.2,50.4,30.43,North,355,0.0,6.0,97,0.00,,---,0.08,VWS V14.00,2013-01-10 03:18:00,
2013-01-09 22:20:00,50.6,49.8,30.42,NNE,33,0.0,0.0,97,0.00,,---,0.08,VWS V14.00,2013-01-10 03:20:00,
2013-01-09 22:23:00,51.2,50.4,30.43,North,355,0.0,0.0,97,0.00,,---,0.08,VWS V14.00,2013-01-10 03:23:00,
2013-01-09 22:28:00,51.2,50.4,30.43,North,355,0.0,0.0,97,0.00,,---,0.08,VWS V14.00,2013-01-10 03:28:00,
2013-01-09 22:30:00,50.5,49.7,30.42,NNE,33,0.0,0.0,97,0.00,,---,0.08,VWS V14.00,2013-01-10 03:30:00,
2013-01-09 22:33:00,51.1,50.3,30.43,North,355,0.0,0.0,97,0.00,,---,0.08,VWS V14.00,2013-01-10 03:33:00,
2013-01-09 22:38:00,51.0,50.2,30.42,North,355,1.0,2.0,97,0.00,,---,0.08,VWS V14.00,2013-01-10 03:38:00,
2013-01-09 22:40:00,50.4,49.6,30.42,NNE,33,0.0,0.0,97,0.00,,---,0.08,VWS V14.00,2013-01-10 03:40:00,
2013-01-09 22:43:00,50.9,50.1,30.42,NNW,327,0.0,1.0,97,0.00,,---,0.08,VWS V14.00,2013-01-10 03:43:00,
2013-01-09 22:48:00,50.9,50.1,30.42,NNW,327,0.0,1.0,97,0.00,,---,0.08,VWS V14.00,2013-01-10 03:48:00,
2013-01-09 22:50:00,50.3,49.5,30.42,NNE,33,0.0,0.0,97,0.00,,---,0.08,VWS V14.00,2013-01-10 03:50:00,
2013-01-09 22:53:00,50.8,50.0,30.43,NNW,327,0.0,0.0,97,0.00,,---,0.08,VWS V14.00,2013-01-10 03:53:00,
2013-01-09 22:58:00,50.7,49.9,30.43,NNW,328,0.0,1.0,97,0.00,,---,0.08,VWS V14.00,2013-01-10 03:58:00,
2013-01-09 23:00:00,50.3,49.5,30.42,NNE,16,0.0,2.0,97,0.00,,---,0.00,VWS V14.00,2013-01-10 04:00:00,
2013-01-09 23:03:00,50.7,49.9,30.42,NNW,328,0.0,1.0,97,0.00,,---,0.08,VWS V14.00,2013-01-10 04:03:00,
2013-01-09 23:08:00,50.7,49.9,30.42,NNE,33,0.0,4.0,97,0.00,,---,0.08,VWS V14.00,2013-01-10 04:08:00,
2013-01-09 23:10:00,50.3,49.5,30.42,NNE,16,0.0,1.0,97,0.00,,---,0.00,VWS V14.00,2013-01-10 04:10:00,
2013-01-09 23:13:00,50.6,49.8,30.42,NNE,33,0.0,0.0,97,0.00,,---,0.08,VWS V14.00,2013-01-10 04:13:00,
2013-01-09 23:18:00,50.6,49.8,30.42,NNE,33,0.0,0.0,97,0.00,,---,0.08,VWS V14.00,2013-01-10 04:18:00,
2013-01-09 23:20:00,50.3,49.5,30.42,NNE,16,0.0,0.0,97,0.00,,---,0.00,VWS V14.00,2013-01-10 04:20:00,
2013-01-09 23:23:00,50.5,49.7,30.42,NNE,33,0.0,0.0,97,0.00,,---,0.08,VWS V14.00,2013-01-10 04:23:00,
2013-01-09 23:28:00,50.5,49.7,30.42,NNE,33,0.0,0.0,97,0.00,,---,0.08,VWS V14.00,2013-01-10 04:28:00,
2013-01-09 23:30:00,50.3,49.5,30.42,NNE,16,0.0,1.0,97,0.00,,---,0.00,VWS V14.00,2013-01-10 04:30:00,
2013-01-09 23:33:00,50.5,49.7,30.42,NNE,33,0.0,0.0,97,0.00,,---,0.08,VWS V14.00,2013-01-10 04:33:00,
2013-01-09 23:38:00,50.4,49.6,30.42,NNE,33,0.0,0.0,97,0.00,,---,0.08,VWS V14.00,2013-01-10 04:38:00,
2013-01-09 23:40:00,50.3,49.5,30.41,NNE,16,0.0,0.0,97,0.00,,---,0.00,VWS V14.00,2013-01-10 04:40:00,
2013-01-09 23:43:00,50.4,49.6,30.42,NNE,33,0.0,0.0,97,0.00,,---,0.08,VWS V14.00,2013-01-10 04:43:00,
2013-01-09 23:48:00,50.3,49.5,30.42,NNE,33,0.0,0.0,97,0.00,,---,0.08,VWS V14.00,2013-01-10 04:48:00,
2013-01-09 23:50:00,50.4,49.6,30.42,NNE,16,0.0,1.0,97,0.00,,---,0.00,VWS V14.00,2013-01-10 04:50:00,
2013-01-09 23:53:00,50.3,49.5,30.42,NNE,33,0.0,0.0,97,0.00,,---,0.08,VWS V14.00,2013-01-10 04:53:00,
2013-01-09 23:58:00,50.3,49.5,30.42,NNE,33,0.0,0.0,97,0.00,,---,0.08,VWS V14.00,2013-01-10 04:58:00,